| time (UTC) | temp F | wind direction | speed knots | gust knots | rain 1hr in | rain 24hr in | rain mn in | humidity % | barometer mb |
| 20260906035023 | 61 | 22 | 0.0 | 2.6 | 0.00 | 0.00 | 0.00 | 100 | |
| 20260906033523 | 62 | 84 | 0.0 | 5.2 | 0.00 | 0.00 | 0.00 | 100 | |
| 20260906032023 | 62 | 184 | 1.7 | 6.1 | 0.00 | 0.00 | 0.00 | 100 | |
| 20260906030523 | 62 | 330 | 0.9 | 0.9 | 0.00 | 0.00 | 0.00 | 100 | |
| 20260906025105 | 62 | 156 | 0.9 | 6.1 | 0.00 | 0.00 | 0.00 | 100 | |
| 20260906025023 | 62 | 156 | 0.9 | 6.1 | 0.00 | 0.00 | 0.00 | 100 | |
| 20260906023523 | 63 | 123 | 4.3 | 7.0 | 0.00 | 0.00 | 0.00 | 100 | |
| 20260906022023 | 63 | 126 | 2.6 | 7.8 | 0.00 | 0.00 | 0.00 | 100 | |
| 20260906020523 | 63 | 142 | 2.6 | 6.1 | 0.00 | 0.00 | 0.00 | 100 | |
| 20260906015023 | 63 | 119 | 1.7 | 3.5 | 0.00 | 0.00 | 0.00 | 100 | |
| 20260906013523 | 63 | 165 | 2.6 | 6.1 | 0.00 | 0.00 | 0.00 | 100 | |
| 20260906012023 | 63 | 172 | 1.7 | 3.5 | 0.00 | 0.00 | 0.00 | 100 | |
| 20260906010523 | 63 | 115 | 0.0 | 2.6 | 0.00 | 0.00 | 0.00 | 100 | |
| 20260906005023 | 64 | 71 | 0.9 | 3.5 | 0.00 | 0.00 | 0.00 | 100 | |
| 20260906003523 | 64 | 175 | 0.0 | 3.5 | 0.00 | 0.00 | 0.00 | 100 | |
| 20260906002023 | 64 | 118 | 0.9 | 4.3 | 0.00 | 0.00 | 0.00 | 100 | |
| 20260906000524 | 64 | 125 | 0.9 | 3.5 | 0.00 | 0.00 | 0.00 | 100 | |
| 20260905235023 | 64 | 67 | 1.7 | 1.7 | 0.00 | 0.00 | 0.00 | 100 | |
| 20260905233523 | 64 | 109 | 0.9 | 4.3 | 0.00 | 0.00 | 0.00 | 100 | |
| 20260905232023 | 65 | 116 | 0.0 | 1.7 | 0.00 | 0.00 | 0.00 | 100 | |
| 20260905230523 | 65 | 57 | 0.0 | 0.0 | 0.00 | 0.00 | 0.00 | 100 | |
| 20260905225023 | 65 | 133 | 0.0 | 1.7 | 0.00 | 0.00 | 0.00 | 100 | |
| 20260905223523 | 66 | 80 | 0.0 | 0.0 | 0.00 | 0.00 | 0.00 | 100 | |
| 20260905222023 | 66 | 80 | 0.0 | 1.7 | 0.00 | 0.00 | 0.00 | 100 | |
| 20260905220523 | 66 | 61 | 0.9 | 3.5 | 0.00 | 0.00 | 0.00 | 100 | |
| 20260905215024 | 67 | 81 | 1.7 | 4.3 | 0.00 | 0.00 | 0.00 | 100 | |
| 20260905213524 | 67 | 45 | 0.0 | 0.0 | 0.00 | 0.00 | 0.00 | 100 | |
| 20260905212024 | 67 | 77 | 0.9 | 2.6 | 0.00 | 0.00 | 0.00 | 100 | |
| 20260905210524 | 68 | 111 | 0.0 | 0.0 | 0.00 | 0.00 | 0.00 | 100 | |
| 20260905205024 | 68 | 90 | 2.6 | 4.3 | 0.00 | 0.00 | 0.00 | 100 | |
| 20260905203524 | 67 | 80 | 0.0 | 0.9 | 0.00 | 0.00 | 0.00 | 100 | |
| 20260905202024 | 67 | 153 | 0.0 | 2.6 | 0.00 | 0.00 | 0.00 | 100 | |
| 20260905200524 | 67 | 118 | 0.0 | 1.7 | 0.00 | 0.00 | 0.00 | 100 | |
| 20260905195024 | 67 | 7 | 0.0 | 0.9 | 0.00 | 0.00 | 0.00 | 100 | |
| 20260905193524 | 67 | 90 | 0.0 | 0.0 | 0.00 | 0.00 | 0.00 | 100 | |
| 20260905192024 | 68 | 102 | 0.0 | 2.6 | 0.00 | 0.00 | 0.00 | 100 | |
| 20260905190524 | 68 | 60 | 2.6 | 3.5 | 0.00 | 0.00 | 0.00 | 100 | |
| 20260905185024 | 68 | 52 | 0.0 | 0.9 | 0.00 | 0.00 | 0.00 | 100 | |
| 20260905183524 | 67 | 68 | 0.0 | 1.7 | 0.00 | 0.00 | 0.00 | 100 | |
| 20260905182024 | 68 | 88 | 0.0 | 0.0 | 0.00 | 0.00 | 0.00 | 100 | |
| 20260905180524 | 68 | 88 | 0.0 | 0.0 | 0.00 | 0.00 | 0.00 | 100 | |
| 20260905175024 | 68 | 88 | 0.0 | 1.7 | 0.00 | 0.00 | 0.00 | 100 | |
| 20260905173648 | 68 | 84 | 1.7 | 1.7 | 0.00 | 0.00 | 0.00 | 100 | |
| 20260905173524 | 68 | 84 | 1.7 | 1.7 | 0.00 | 0.00 | 0.00 | 100 | |
| 20260905172024 | 68 | 77 | 0.9 | 2.6 | 0.00 | 0.00 | 0.00 | 100 | |
| 20260905170524 | 69 | 112 | 3.5 | 5.2 | 0.00 | 0.00 | 0.00 | 100 | |
| 20260905165024 | 70 | 75 | 6.1 | 7.8 | 0.00 | 0.00 | 0.00 | 100 | |
| 20260905163524 | 70 | 73 | 6.1 | 7.8 | 0.00 | 0.00 | 0.00 | 100 | |
| 20260905162024 | 70 | 57 | 2.6 | 6.1 | 0.00 | 0.00 | 0.00 | 100 | |
| 20260905160525 | 70 | 80 | 4.3 | 8.7 | 0.00 | 0.00 | 0.00 | 100 | |
| 20260905155024 | 71 | 74 | 4.3 | 9.6 | 0.00 | 0.00 | 0.00 | 100 | |
| 20260905153524 | 71 | 85 | 5.2 | 12.2 | 0.00 | 0.00 | 0.00 | 100 | |
| 20260905152024 | 71 | 84 | 5.2 | 8.7 | 0.00 | 0.00 | 0.00 | 100 | |
| 20260905150524 | 71 | 82 | 7.0 | 11.3 | 0.00 | 0.00 | 0.00 | 100 | |
| 20260905145024 | 71 | 61 | 6.1 | 11.3 | 0.00 | 0.00 | 0.00 | 100 | |
| 20260905143524 | 73 | 70 | 7.0 | 10.4 | 0.00 | 0.00 | 0.00 | 100 | |
| 20260905142024 | 72 | 39 | 4.3 | 11.3 | 0.00 | 0.00 | 0.00 | 100 | |
| 20260905140607 | 72 | 37 | 12.2 | 13.0 | 0.00 | 0.00 | 0.00 | 100 | |
| 20260905140524 | 72 | 37 | 12.2 | 13.0 | 0.00 | 0.00 | 0.00 | 100 | |
| 20260905135138 | 73 | 81 | 8.7 | 10.4 | 0.00 | 0.00 | 0.00 | 100 | |
| 20260905135024 | 73 | 81 | 8.7 | 10.4 | 0.00 | 0.00 | 0.00 | 100 | |
| 20260905133559 | 74 | 25 | 6.1 | 11.3 | 0.00 | 0.00 | 0.00 | 100 | |
| 20260905133524 | 74 | 25 | 6.1 | 11.3 | 0.00 | 0.00 | 0.00 | 100 | |
| 20260905132024 | 75 | 7 | 7.8 | 10.4 | 0.00 | 0.00 | 0.00 | 100 | |
| 20260905130524 | 75 | 80 | 4.3 | 12.2 | 0.00 | 0.00 | 0.00 | 100 | |
| 20260905125024 | 75 | 56 | 5.2 | 11.3 | 0.00 | 0.00 | 0.00 | 100 | |
| 20260905123524 | 76 | 60 | 5.2 | 10.4 | 0.00 | 0.00 | 0.00 | 100 | |
| 20260905122025 | 74 | 73 | 5.2 | 11.3 | 0.00 | 0.00 | 0.00 | 100 | |
| 20260905120525 | 73 | 71 | 7.0 | 13.0 | 0.00 | 0.00 | 0.00 | 100 | |
| 20260905115025 | 73 | 146 | 7.0 | 11.3 | 0.00 | 0.00 | 0.00 | 100 | |
| 20260905113525 | 71 | 73 | 7.0 | 13.0 | 0.00 | 0.00 | 0.00 | 100 | |
| 20260905112025 | 71 | 75 | 8.7 | 13.0 | 0.00 | 0.00 | 0.00 | 100 | |
| 20260905110525 | 72 | 68 | 9.6 | 13.0 | 0.00 | 0.00 | 0.00 | 100 | |
| 20260905105025 | 73 | 64 | 7.0 | 11.3 | 0.00 | 0.00 | 0.00 | 100 | |
| 20260905103525 | 75 | 12 | 7.0 | 11.3 | 0.00 | 0.00 | 0.00 | 100 | |
| 20260905102025 | 74 | 40 | 8.7 | 14.8 | 0.00 | 0.00 | 0.00 | 100 | |
| 20260905100525 | 77 | 75 | 4.3 | 13.9 | 0.00 | 0.00 | 0.00 | 100 | |
| 20260905095025 | 77 | 57 | 4.3 | 6.1 | 0.00 | 0.00 | 0.00 | 100 | |
| 20260905093525 | 79 | 227 | 1.7 | 7.8 | 0.00 | 0.00 | 0.00 | 100 | |
| 20260905092025 | 79 | 327 | 2.6 | 7.8 | 0.00 | 0.00 | 0.00 | 100 | |
| 20260905090606 | 79 | 306 | 0.0 | 8.7 | 0.00 | 0.00 | 0.00 | 100 | |
| 20260905090525 | 79 | 306 | 0.0 | 8.7 | 0.00 | 0.00 | 0.00 | 100 | |
| 20260905085025 | 78 | 277 | 5.2 | 9.6 | 0.00 | 0.00 | 0.00 | 100 | |
| 20260905083525 | 77 | 255 | 4.3 | 8.7 | 0.00 | 0.00 | 0.00 | 100 | |
| 20260905082025 | 78 | 320 | 7.8 | 7.8 | 0.00 | 0.00 | 0.00 | 100 | |
| 20260905080525 | 77 | 281 | 6.1 | 12.2 | 0.00 | 0.00 | 0.00 | 100 | |
| 20260905075025 | 77 | 330 | 3.5 | 7.8 | 0.00 | 0.00 | 0.00 | 100 | |
| 20260905073525 | 76 | 296 | 5.2 | 10.4 | 0.00 | 0.00 | 0.00 | 100 | |
| 20260905072025 | 75 | 326 | 4.3 | 13.0 | 0.00 | 0.00 | 0.00 | 100 | |
| 20260905070525 | 74 | 270 | 2.6 | 13.0 | 0.00 | 0.00 | 0.00 | 100 | |
| 20260905065025 | 73 | 307 | 9.6 | 13.9 | 0.00 | 0.00 | 0.00 | 100 | |
| 20260905063525 | 73 | 303 | 6.1 | 13.9 | 0.00 | 0.00 | 0.00 | 100 | |
| 20260905062025 | 73 | 315 | 11.3 | 13.0 | 0.00 | 0.00 | 0.00 | 100 | |
| 20260905060525 | 73 | 288 | 4.3 | 11.3 | 0.00 | 0.00 | 0.00 | 100 | |
| 20260905055025 | 72 | 251 | 4.3 | 13.9 | 0.00 | 0.00 | 0.00 | 100 | |
| 20260905053525 | 71 | 281 | 9.6 | 13.9 | 0.00 | 0.00 | 0.00 | 100 | |
| 20260905052025 | 70 | 281 | 7.8 | 13.9 | 0.00 | 0.00 | 0.00 | 100 | |
| 20260905050525 | 70 | 284 | 4.3 | 12.2 | 0.00 | 0.00 | 0.00 | 100 | |
| 20260905045025 | 70 | 347 | 7.8 | 15.6 | 0.00 | 0.00 | 0.00 | 100 | |
| 20260905043525 | 70 | 268 | 7.8 | 11.3 | 0.00 | 0.00 | 0.00 | 100 | |
| 20260905042026 | 70 | 303 | 9.6 | 15.6 | 0.00 | 0.00 | 0.00 | 100 | |
| 20260905040526 | 69 | 250 | 4.3 | 7.8 | 0.00 | 0.00 | 0.00 | 100 |